Location: Équennes
(49.7375°N, 1.9622°E)
Time: 18:30:04
(UTC+00:00)

Cosmos 2278 - Pass Details

Date: 25 September 2023
Orbit: 838 x 853 km, 71.1° (Epoch: 08 December)

Event Time Altitude Azimuth Distance (km) Brightness Sun altitude
Rises 18:36:40 0° 233° (SW) 3,390 7.6 -9.2°
Reaches altitude 10° 18:39:16 10° 241° (WSW) 2,461 6.9 -9.7°
Maximum altitude 18:44:32 39° 310° (NW) 1,253 5.2 -10.5°
Drops below altitude 10° 18:49:52 10° 19° (NNE) 2,484 6.1 -11.3°
Sets 18:52:30 0° 27° (NNE) 3,425 6.7 -11.8°
